チュリュモフ-ゲラシメンコ彗星

67P/Churyumov-Gerasimenko (1996)

English version
Home page
Updated on May 5, 2012

---------------------------------------------------------------------

・ プロフィール

・ 軌道要素

Epoch 1995 Dec. 29.0 TT = JDT 2450080.5
T 1996 Jan. 17.65588 TT                                 MPC
q   1.3000283            (2000.0)            P               Q
n   0.14953272     Peri.   11.38589     +0.46458282     -0.88028366
a   3.5154308      Node    51.00727     +0.80242354     +0.37251784
e   0.6301937      Incl.    7.11343     +0.37453873     +0.29382162
P   6.59
From 2745 observations 1969 Sept. 11-2012 Apr. 25, mean residual 0".8.
     Nongravitational parameters A1 = +0.08, A2 = +0.0100.

・ 星図

・ 1995年 4月 3日〜1996年 4月17日
・ 1996年 3月28日〜1997年 5月22日

・ 光度変化

        m1 = 9.0 + 5 logΔ + 15 log r(t - 40)

---------------------------------------------------------------------

軌道要素はM.P.E.C. 2012-J16に掲載されたものです。
星図は StellaNavigator Ver.2.0 for Windows (アストロアーツ編著 / アスキー出版局刊) で作成したものです。
光度グラフはComet for Windowsで作成したものです。

---------------------------------------------------------------------

Copyright(C) Seiichi Yoshida (comet@aerith.net). All rights reserved.